Flag for Germany Weather past 2 weeks in Hofheim am Taunus, Hesse, Germany

Now
37 °F

Passing clouds.


Feels Like: 32 °F
Forecast: 36 / 45 °F
Wind: 7 mph from West

Location: Wiesbaden Airport

Current Time: Mar 4, 2015 at 4:07:04 AM

Latest Report: Mar 4, 2015 at 2:58 AM


Visibility: N/A

Pressure: 30.19 "Hg

Humidity: 87%

Dew point: 34 °F

Location of Hofheim am TaunusLocation

Historic Weather in Hofheim am Taunus — Graph

°F

Hofheim am Taunus temperature yesterday

Maximum temperature yesterday: 52 °F (at 4:58 PM)
Minimum temperature yesterday: 32 °F (at 7:58 AM)
Average temperature yesterday: 41 °F

Past Weeks' High & Low Weather Summary

 TemperatureHumidityPressure
High52 °F (Feb 20, 1:58 PM)100% (Feb 22, 5:58 AM)30.78 "Hg (Feb 22, 5:58 AM)
Low29 °F (Feb 28, 6:58 AM)43% (Mar 2, 3:58 PM)29.47 "Hg (Feb 21, 6:58 AM)
Average39 °F82%30.01 "Hg
* Reported Feb 17 2:58 AM — Mar 4 2:58 AM, Hofheim am Taunus, Weather by CustomWeather, © 2015

Note: Actual official high and low records may vary slightly from our data, if they occured in-between our weather recording intervals... More about our weather records

Advertising

Hofheim am Taunus weather history for previous 24 hours

 ConditionsComfort  
Time TempWeatherWind HumidityBarometerVisibility
2:58 AM
Wed, Mar 4
37 °FPassing clouds.7 mph87%30.19 "HgN/A
1:58 AM37 °FPassing clouds.9 mph93%30.18 "HgN/A
12:58 AM38 °FRain. Overcast.13 mph88%30.16 "HgN/A
11:58 PM
Tue, Mar 3
39 °FRain. Mostly cloudy.12 mph87%30.15 "HgN/A
10:58 PM39 °FMostly cloudy.8 mph87%30.12 "HgN/A
9:58 PM41 °FMostly cloudy.13 mph82%30.10 "HgN/A
8:58 PM43 °FLight rain. Overcast.16 mph76%30.10 "HgN/A
7:58 PM46 °FMostly cloudy.13 mph57%30.05 "HgN/A
6:58 PM48 °FMostly cloudy.13 mph54%30.05 "HgN/A
5:59 PM48 °FScattered clouds.13 mph54%30.03 "HgN/A
4:58 PM52 °FMostly cloudy.17 mph47%30.05 "HgN/A
3:58 PM50 °FPartly sunny.21 mph54%30.06 "HgN/A
3:01 PM50 °FPartly sunny.20 mph54%30.06 "HgN/A
1:58 PM48 °FPartly sunny.15 mph57%30.11 "HgN/A
12:58 PM48 °FBroken clouds.15 mph58%30.14 "HgN/A
11:58 AM46 °FPassing clouds.13 mph63%30.17 "HgN/A
10:58 AM43 °FPassing clouds.14 mph71%30.18 "HgN/A
9:58 AM40 °FSunny.7 mph75%30.19 "HgN/A
8:58 AM38 °FSunny.2 mph77%30.19 "HgN/A
7:58 AM32 °FPartly sunny.No wind87%30.17 "HgN/A
6:58 AM33 °FPassing clouds.2 mph85%30.16 "HgN/A
5:58 AM33 °FClear.3 mph84%30.16 "HgN/A
4:58 AM33 °FClear.5 mph82%30.15 "HgN/A
Weather by CustomWeather, © 2015

See weather overviewHow to use our weather pages